Location: Blue Mountain Vista Observatory
(40.6992°N, 75.9422°W)
Time: 17:46:45
(UTC-05:00)

Daily predictions for brighter satellites

Satellite Brightness Start Highest point End
(mag) Time Altitude Azimuth Time Altitude Azimuth Time Altitude Azimuth
Cosmos 1833 4.3 18:12:16 10° SSW 18:17:59 90° WNW 18:23:40 10° NNE
SL-16 R/B 3.9 18:16:31 10° NW 18:21:44 39° WSW 18:26:55 10° S
Resurs 01 Rocket 2.9 18:19:46 10° ESE 18:23:04 21° ENE 18:26:21 10° NNE
Meteor 1-11 Rocket 3.9 18:17:30 10° S 18:23:09 56° E 18:28:57 10° NNE
NOAA 12 4.2 18:18:14 10° SSE 18:23:27 59° ENE 18:28:42 10° N
Cosmos 2333 Rocket 3.5 18:21:39 10° N 18:25:59 21° NE 18:30:17 10° E
Cosmos 1140 Rocket 3.4 18:21:04 10° SSW 18:26:11 82° ESE 18:31:23 10° NNE
Cosmos 614 Rocket 3.9 18:22:10 10° S 18:27:10 62° ESE 18:32:11 10° NNE
FENGYUN 3A 4.2 18:25:44 10° SE 18:30:39 37° ENE 18:35:36 10° N
ATLAS CENTAUR R/B 3.3 18:31:26 10° S 18:34:25 16° SE 18:36:03 11° ESE
Meteor 1-28 Rocket 3.8 18:32:03 10° N 18:35:50 63° WNW 18:39:36 10° SSW
GPS 2-04 Rocket1 3.8 18:32:06 10° WSW 18:36:01 37° S 18:39:42 12° ESE
Cosmos 1570 Rocket 4.1 18:31:09 10° NNW 18:36:18 57° ENE 18:41:27 10° SSE
Cosmos 2181 Rocket 4.0 18:30:13 10° N 18:36:31 77° E 18:42:52 10° S
Cosmos 1633 2.8 18:34:56 10° SSW 18:38:36 74° W 18:42:18 10° N
USA 229 DEB 4.1 18:32:39 10° NNW 18:39:34 50° NE 18:46:35 10° ESE
USA 229 4.1 18:32:45 10° NNW 18:39:40 50° NE 18:46:40 10° ESE
Genesis I 3.1 18:36:17 10° NNW 18:40:15 82° ENE 18:44:10 10° SE
Cosmos 1238 Rocket 2.1 18:37:42 10° N 18:40:39 86° W 18:43:43 10° S
Okean 1 Rocket 3.0 18:37:03 10° S 18:41:30 69° E 18:45:58 10° NNE
Cosmos 1709 Rocket 4.2 18:37:28 10° SSW 18:43:40 76° W 18:49:50 10° N
Cosmos 2074 Rocket 4.2 18:39:13 10° SSE 18:45:10 48° E 18:51:10 10° NNE
METEOR-M 4.2 18:40:01 10° SSE 18:45:22 89° W 18:50:44 10° NNW
Cosmos 1025 Rocket 3.4 18:44:13 10° N 18:48:26 43° ENE 18:52:36 10° SSE
OTV 4 2.3 18:48:02 10° SSW 18:50:14 19° SSE 18:51:22 15° SE
Spot 2 Rocket 3.9 18:45:45 10° SE 18:50:28 41° ENE 18:55:13 10° N
Cosmos 2184 Rocket 4.1 18:45:28 10° SSE 18:51:32 52° E 18:57:33 10° NNE
Meteor 1-5 Rocket 4.5 18:46:10 10° SSE 18:51:54 50° E 18:57:33 10° NNE
FengYun 1-2 T 4.2 18:50:11 10° SSE 18:55:33 60° ENE 19:00:59 10° N
Cosmos 2322 4.4 18:52:06 10° NNW 18:57:41 58° WSW 19:03:15 10° S
Hubble Space Telescope 3.0 18:59:42 10° SSW 19:01:41 13° S 19:03:33 10° SE
BREEZE-M DEB (TANK) 2.2 19:00:10 10° SW 19:04:20 69° SSE 19:05:21 32° ENE
Cosmos 1850 Rocket 4.4 19:00:53 10° SSW 19:06:10 70° WNW 19:11:31 10° NNE
Envisat 4.3 19:06:50 20° ENE 19:07:11 20° ENE 19:10:51 10° NNE
Cosmos 2208 Rocket 4.1 19:01:54 10° NNW 19:07:22 83° WSW 19:12:44 10° SSE
SJ-6B 3.4 19:04:56 10° S 19:08:52 60° WSW 19:12:44 10° NNW
Cosmos 1544 Rocket 4.1 19:05:10 10° SSE 19:09:03 33° E 19:12:55 10° NNE
Nadezhda 3 Rocket 4.5 19:03:58 10° N 19:09:35 35° ENE 19:14:50 12° SE
NOSS 0 Rocket 4.2 19:05:03 10° NNW 19:10:59 47° ENE 19:15:08 19° SE
Cosmos 405 Rocket 3.2 19:07:25 10° N 19:11:16 40° ENE 19:13:12 24° SE
Cosmos 2237 Rocket 2.9 19:07:11 10° N 19:12:22 34° ENE 19:14:36 25° E
ALOS 2.2 19:07:48 10° SSE 19:12:28 88° WSW 19:17:11 10° NNW
HJ-1C 3.4 19:10:21 10° S 19:13:43 80° WSW 19:17:06 10° NNW
Cosmos 2297 Rocket 3.1 19:09:39 10° SSE 19:14:11 25° ESE 19:14:23 25° E
Cosmos 2333 4.2 19:08:58 10° NNW 19:14:45 89° ENE 19:20:31 10° SSE
H-2A R/B 2.6 19:11:55 10° SSE 19:15:34 64° ENE 19:19:18 10° N
CZ-2D R/B 3.4 19:14:14 23° SE 19:16:18 47° ENE 19:19:59 10° N
COSMOS 2428 2.8 19:10:52 10° NNW 19:16:34 78° WSW 19:22:14 10° SSE
Okean 1-7 Rocket 4.1 19:14:42 10° NNW 19:19:11 63° W 19:23:34 10° S
Cosmos 2154 Rocket 4.2 19:15:01 10° SSE 19:21:01 47° E 19:27:02 10° NNE
Meteor 2-4 Rocket 4.1 19:16:28 10° NNW 19:21:54 62° W 19:27:11 10° S
Cosmos 2285 Rocket 4.0 19:16:57 10° NNW 19:23:26 83° ENE 19:29:50 10° SSE
Gbstr 26 Del rocket 4.2 19:20:11 10° W 19:23:33 29° NNW 19:25:40 17° NNE
Cosmos 2360 Rocket 4.2 19:19:48 10° NW 19:24:37 30° WSW 19:29:26 10° SSW
Cosmos 2219 Rocket 2.1 19:19:11 10° NNW 19:24:47 69° ENE 19:28:57 18° SE
Okean 2 3.3 19:24:38 10° N 19:28:50 85° E 19:33:01 10° S
Cosmos 2219 4.0 19:26:58 10° SW 19:32:35 53° WNW 19:38:13 10° NNE
Cosmos 2227 Rocket 2.3 19:29:00 10° S 19:34:26 50° ESE 19:38:28 18° NE
Helios 1A 2.9 19:33:28 45° SE 19:34:30 62° ENE 19:38:37 10° N
Atlas Centaur 2 4.0 19:30:01 10° SSW 19:34:38 18° SSE 19:35:47 17° SSE
Cosmos 1486 Rocket 4.3 19:29:51 10° S 19:34:53 44° ESE 19:36:14 36° ENE
Helios 1B rocket 2.4 19:31:18 10° NNE 19:35:24 58° E 19:39:29 10° S
Abrixas rocket 3.2 19:33:31 10° W 19:36:43 39° NNW 19:37:11 37° N
SAR-Lupe-1 4.1 19:44:47 68° N 19:44:47 68° N 19:47:58 10° NNW
SAR-Lupe-4 3.6 19:44:54 69° SSW 19:45:13 77° WSW 19:48:49 10° NNW
Cosmos 1455 Rocket 2.9 19:42:05 10° S 19:46:26 72° E 19:50:47 10° NNE
Cosmos 841 Rocket 4.1 19:42:19 10° N 19:46:24 37° NE 19:46:24 37° NE
SL-16 R/B 3.2 19:43:13 10° N 19:47:23 28° NE 19:47:23 28° NE
Cosmos 962 Rocket 4.4 19:45:13 10° S 19:51:16 60° E 19:57:18 10° NNE
Meteor 2-8 Rocket 4.5 19:48:29 10° N 19:54:25 52° ENE 19:54:42 52° E
Cosmos 1763 Rocket 3.5 19:52:46 10° NNW 19:57:29 58° NE 19:57:29 58° NE
Resurs 01 Rocket 3.1 19:55:15 10° SSW 19:59:18 35° W 20:03:22 10° NNW
Cosmos 2333 Rocket 2.6 20:05:01 10° NNW 20:10:42 63° WSW 20:12:59 36° S
GEOS 3 Rocket 4.1 20:08:21 24° NNE 20:11:28 59° NW 20:16:38 10° SW
Cosmos 1980 3.7 20:06:06 10° NNW 20:11:45 77° WSW 20:12:50 58° S
GPS 2-04 Rocket1 4.4 20:11:31 10° WSW 20:14:12 31° SW 20:14:12 31° SW
Cosmos 1295 Rocket 4.5 20:33:35 78° WSW 20:33:52 80° W 20:40:12 10° N
Cosmos 2082 4.2 20:31:07 10° SW 20:36:45 58° WNW 20:37:59 47° NNW
NOSS 3-1 (A) 3.9 20:35:49 10° NW 20:43:31 86° WSW 20:44:07 79° SSE
Envisat 4.1 20:47:02 41° WNW 20:47:02 41° WNW 20:50:46 10° NNW
ATLAS 2AS CENTAUR R/B 3.8 20:41:48 10° NNW 20:48:06 37° NNE 20:48:06 37° NNE
Cosmos 2237 Rocket 3.5 20:51:16 10° NW 20:56:23 35° WSW 20:56:29 35° WSW
Cosmos 2297 Rocket 3.4 20:52:32 10° SW 20:56:25 37° W 20:56:25 37° W
NOSS 3-1 (C) 4.5 20:53:46 10° NW 21:01:16 55° WSW 21:02:16 52° SW
Cosmos 2227 Rocket 4.2 21:14:11 10° WSW 21:18:45 25° NW 21:20:36 21° NNW
SL-16 R/B 4.3 21:27:03 10° NW 21:29:17 23° NW 21:29:17 23° NW
